Weather History for PHTO - April, 2013

Change the Weather History Date:

Friday, April 26, 2013

  Actual Average Record
Temperature  
Mean Temperature 75 °F 73 °F  
Max Temperature 82 °F 79 °F 86 °F (1962)
Min Temperature 67 °F 66 °F 59 °F (2009)
Degree Days  
Heating Degree Days 0 0  
Month to date heating degree days 0 0  
Since 1 July heating degree days 0 0  
Cooling Degree Days 10 7  
Month to date cooling degree days 224 182  
Year to date cooling degree days 798 763  
Growing Degree Days 22 (Base 50)    
Moisture  
Dew Point 64 °F    
Average Humidity 74    
Maximum Humidity 93    
Minimum Humidity 54    
Precipitation  
Precipitation 0.21 in 0.34 in 3.13 in (1963)
Month to date precipitation 2.32 10.25  
Year to date precipitation 37.96 42.50  
Snow  
Snow 0.00 in - - ()
Month to date snowfall 0.0  
Since 1 July snowfall 0.0  
Snow Depth 0.00 in    
Sea Level Pressure  
Sea Level Pressure 30.05 in    
Wind  
Wind Speed 7 mph (SSW)    
Max Wind Speed 16 mph    
Max Gust Speed 21 mph    
Visibility 10 miles    
Events Rain    
T = Trace of Precipitation, MM = Missing Value Source: NWS Daily Summary

Daily Weather History Graph

Daily Weather History Graph

Search for Another Location

Airport or City:

Trip Planner

Search our weather history database for the weather conditions in past years. The results will help you decide how hot, cold, wet, or windy it might be!

Date:

Astronomy

Apr. 26, 2013 Rise Set
Actual Time 5:54 AM HST 6:41 PM HST
Civil Twilight 5:31 AM HST 7:04 PM HST
Nautical Twilight 5:04 AM HST 7:31 PM HST
Astronomical Twilight 4:37 AM HST 7:58 PM HST
Moon 8:05 PM HST (4/26) 6:38 AM HST (4/26)
Length of Visible Light 13h 33m
Length of Day
12h 47m
Full, 98% of the Moon is Illuminated
Apr 26
Full
May 2
Last Quarter
May 9
New
May 17
First Quarter
May 24
Full

Hourly Weather History & Observations

Time (HST) Temp. Heat Index Dew Point Humidity Pressure Visibility Wind Dir Wind Speed Gust Speed Precip Events Conditions
12:53 AM 72.0 °F - 64.0 °F 76% 30.06 in 10.0 mi Calm Calm - N/A   Overcast
1:40 AM 70.0 °F - 66.0 °F 87% 30.06 in 4.0 mi SSW 5.8 mph - 0.05 in Rain Rain
1:53 AM 69.1 °F - 66.0 °F 90% 30.05 in 10.0 mi WSW 3.5 mph - 0.07 in   Overcast
2:08 AM 69.1 °F - 66.0 °F 90% 30.05 in 10.0 mi WSW 6.9 mph - N/A   Overcast
2:53 AM 68.0 °F - 64.9 °F 90% 30.04 in 10.0 mi West 9.2 mph - N/A   Mostly Cloudy
3:53 AM 66.9 °F - 63.0 °F 87% 30.02 in 10.0 mi WSW 4.6 mph - N/A   Mostly Cloudy
4:35 AM 68.0 °F - 66.0 °F 93% 30.04 in 5.0 mi SSW 3.5 mph - 0.13 in Rain Light Rain
4:45 AM 68.0 °F - 66.0 °F 93% 30.04 in 10.0 mi SW 4.6 mph - 0.14 in   Overcast
4:53 AM 68.0 °F - 64.9 °F 90% 30.03 in 10.0 mi SW 5.8 mph - 0.14 in   Overcast
5:53 AM 66.9 °F - 64.0 °F 90% 30.04 in 10.0 mi WSW 5.8 mph - N/A   Mostly Cloudy
6:53 AM 68.0 °F - 64.9 °F 90% 30.06 in 10.0 mi SW 4.6 mph - N/A   Mostly Cloudy
7:53 AM 72.0 °F - 66.0 °F 81% 30.08 in 10.0 mi West 3.5 mph - 0.00 in   Mostly Cloudy
8:53 AM 75.9 °F - 64.9 °F 69% 30.08 in 10.0 mi Calm Calm - N/A   Mostly Cloudy
9:53 AM 79.0 °F - 62.1 °F 56% 30.09 in 10.0 mi ENE 8.1 mph - N/A   Scattered Clouds
10:53 AM 80.1 °F 81.2 °F 62.1 °F 54% 30.07 in 10.0 mi NNE 9.2 mph - N/A   Scattered Clouds
11:53 AM 79.0 °F - 62.1 °F 56% 30.06 in 10.0 mi ENE 11.5 mph - N/A   Mostly Cloudy
12:53 PM 78.1 °F - 62.1 °F 58% 30.04 in 10.0 mi ENE 12.7 mph - N/A   Mostly Cloudy
1:53 PM 78.1 °F - 61.0 °F 56% 30.03 in 10.0 mi ENE 9.2 mph 18.4 mph N/A   Mostly Cloudy
2:53 PM 77.0 °F - 60.1 °F 56% 30.01 in 10.0 mi NE 12.7 mph - N/A   Mostly Cloudy
3:53 PM 75.9 °F - 60.1 °F 58% 30.01 in 10.0 mi East 11.5 mph - N/A   Mostly Cloudy
4:53 PM 77.0 °F - 60.1 °F 56% 30.01 in 10.0 mi East 8.1 mph - N/A   Overcast
5:53 PM 75.0 °F - 62.1 °F 64% 30.01 in 10.0 mi ESE 6.9 mph - N/A   Overcast
6:53 PM 73.0 °F - 62.1 °F 68% 30.03 in 10.0 mi ESE 5.8 mph - N/A   Mostly Cloudy
7:53 PM 73.0 °F - 63.0 °F 71% 30.05 in 10.0 mi Calm Calm - N/A   Overcast
8:53 PM 72.0 °F - 64.0 °F 76% 30.06 in 10.0 mi WSW 5.8 mph - N/A   Mostly Cloudy
9:36 PM 72.0 °F - 64.0 °F 76% 30.07 in 10.0 mi West 5.8 mph - N/A   Overcast
9:53 PM 72.0 °F - 64.0 °F 76% 30.07 in 10.0 mi SW 5.8 mph - N/A   Overcast
10:20 PM 72.0 °F - 64.0 °F 76% 30.07 in 10.0 mi Calm Calm - N/A   Overcast
10:53 PM 71.1 °F - 64.9 °F 81% 30.07 in 10.0 mi SSE 3.5 mph - 0.00 in   Overcast
11:53 PM 70.0 °F - 64.9 °F 84% 30.06 in 10.0 mi SE 3.5 mph - 0.00 in Rain Light Rain